TimeCST,TemperatureF,Dew PointF,Humidity,Sea Level PressureIn,VisibilityMPH,Wind Direction,Wind SpeedMPH,Gust SpeedMPH,PrecipitationIn,Events,Conditions,WindDirDegrees,DateUTC
12:55 AM,67.1,67.1,100,30.08,10.0,WNW,5.8,-,N/A,,Clear,300,2012-11-04 05:55:00
1:55 AM,66.7,66.7,100,30.08,10.0,WNW,3.5,-,N/A,,Clear,300,2012-11-04 06:55:00
1:55 AM,66.7,66.7,100,30.07,10.0,WNW,5.8,-,N/A,,Clear,290,2012-11-04 07:55:00
2:55 AM,65.7,65.3,99,30.07,10.0,NNW,3.5,-,N/A,,Clear,330,2012-11-04 08:55:00
3:37 AM,62.6,62.6,100,30.06,2.5,Calm,Calm,-,N/A,,Clear,0,2012-11-04 09:37:00
3:42 AM,62.6,62.6,100,30.06,3.0,Calm,Calm,-,N/A,,Clear,0,2012-11-04 09:42:00
3:55 AM,64.2,64.2,100,30.06,8.0,WSW,4.6,-,N/A,,Clear,250,2012-11-04 09:55:00
4:55 AM,65.8,65.8,100,30.06,10.0,Calm,Calm,-,N/A,,Clear,0,2012-11-04 10:55:00
5:18 AM,66.2,66.2,100,30.07,8.0,WNW,4.6,-,N/A,,Partly Cloudy,290,2012-11-04 11:18:00
5:28 AM,62.6,60.8,94,30.08,2.5,NW,3.5,-,N/A,,Scattered Clouds,310,2012-11-04 11:28:00
5:30 AM,60.8,60.8,100,30.08,1.8,WNW,3.5,-,N/A,,Scattered Clouds,300,2012-11-04 11:30:00
5:31 AM,60.8,60.8,100,30.08,1.5,NW,3.5,-,N/A,,Mostly Cloudy,310,2012-11-04 11:31:00
5:33 AM,60.8,60.8,100,30.08,1.2,WNW,3.5,-,N/A,,Mostly Cloudy,300,2012-11-04 11:33:00
5:34 AM,60.8,60.8,100,30.08,1.0,NW,3.5,-,N/A,,Mist,310,2012-11-04 11:34:00
5:38 AM,60.8,60.8,100,30.08,0.8,WNW,4.6,-,N/A,,Mist,290,2012-11-04 11:38:00
5:41 AM,62.6,62.6,100,30.08,0.5,WNW,3.5,-,N/A,Fog,Fog,290,2012-11-04 11:41:00
5:46 AM,64.4,64.4,100,30.08,0.5,West,4.6,-,N/A,Fog,Fog,280,2012-11-04 11:46:00
5:47 AM,64.4,64.4,100,30.08,0.5,West,4.6,-,N/A,Fog,Fog,280,2012-11-04 11:47:00
5:48 AM,64.4,64.4,100,30.09,0.5,West,4.6,-,N/A,Fog,Fog,280,2012-11-04 11:48:00
5:55 AM,64.9,64.9,100,30.08,0.5,West,3.5,-,N/A,Fog,Fog,280,2012-11-04 11:55:00
5:56 AM,64.4,64.4,100,30.08,0.5,West,3.5,-,N/A,Fog,Fog,280,2012-11-04 11:56:00
6:01 AM,64.4,64.4,100,30.08,0.2,WNW,3.5,-,N/A,Fog,Fog,290,2012-11-04 12:01:00
6:02 AM,64.4,64.4,100,30.09,0.5,WNW,3.5,-,N/A,Fog,Fog,290,2012-11-04 12:02:00
6:03 AM,64.4,64.4,100,30.09,0.5,WNW,3.5,-,N/A,Fog,Fog,290,2012-11-04 12:03:00
6:13 AM,64.4,64.4,100,30.09,0.2,WNW,4.6,-,N/A,Fog,Fog,300,2012-11-04 12:13:00
6:14 AM,64.4,64.4,100,30.09,0.2,WNW,4.6,-,N/A,Fog,Fog,300,2012-11-04 12:14:00
6:16 AM,64.4,64.4,100,30.09,0.2,NW,4.6,-,N/A,Fog,Fog,310,2012-11-04 12:16:00
6:21 AM,64.4,64.4,100,30.09,0.2,WNW,6.9,-,N/A,Fog,Fog,300,2012-11-04 12:21:00
6:30 AM,64.4,64.4,100,30.09,0.2,NW,3.5,-,N/A,Fog,Fog,310,2012-11-04 12:30:00
6:31 AM,64.4,64.4,100,30.09,0.2,NW,3.5,-,N/A,Fog,Fog,310,2012-11-04 12:31:00
6:34 AM,64.4,64.4,100,30.09,0.5,NW,3.5,-,N/A,Fog,Fog,310,2012-11-04 12:34:00
6:52 AM,64.4,64.4,100,30.10,0.8,Calm,Calm,-,N/A,,Mist,0,2012-11-04 12:52:00
6:54 AM,64.4,64.4,100,30.10,0.8,NW,3.5,-,N/A,,Mist,310,2012-11-04 12:54:00
6:55 AM,63.7,63.7,100,30.10,0.8,NW,3.5,-,N/A,,Mist,310,2012-11-04 12:55:00
6:58 AM,64.4,64.4,100,30.10,1.0,NW,3.5,-,N/A,,Mist,310,2012-11-04 12:58:00
6:59 AM,64.4,64.4,100,30.10,1.2,WNW,3.5,-,N/A,,Mostly Cloudy,300,2012-11-04 12:59:00
7:01 AM,64.4,64.4,100,30.10,1.5,NW,3.5,-,N/A,,Mostly Cloudy,310,2012-11-04 13:01:00
7:02 AM,64.4,64.4,100,30.10,2.0,NW,4.6,-,N/A,,Mostly Cloudy,310,2012-11-04 13:02:00
7:04 AM,64.4,64.4,100,30.10,3.0,NW,4.6,-,N/A,,Mostly Cloudy,310,2012-11-04 13:04:00
7:08 AM,64.4,64.4,100,30.11,9.0,NNW,4.6,-,N/A,,Mostly Cloudy,330,2012-11-04 13:08:00
7:34 AM,64.4,64.4,100,30.11,3.0,Calm,Calm,-,N/A,,Scattered Clouds,0,2012-11-04 13:34:00
7:55 AM,66.4,66.2,99,30.10,10.0,NW,3.5,-,N/A,,Partly Cloudy,320,2012-11-04 13:55:00
8:55 AM,71.2,68.9,92,30.09,10.0,NNW,8.1,-,N/A,,Clear,330,2012-11-04 14:55:00
9:55 AM,76.6,67.6,74,30.09,10.0,NW,9.2,-,N/A,,Clear,310,2012-11-04 15:55:00
10:55 AM,79.2,66.4,65,30.07,10.0,WNW,6.9,-,N/A,,Clear,300,2012-11-04 16:55:00
11:16 AM,78.8,68.0,69,30.06,10.0,WSW,8.1,-,N/A,,Mostly Cloudy,250,2012-11-04 17:16:00
11:43 AM,78.8,68.0,69,30.05,10.0,West,8.1,-,N/A,,Mostly Cloudy,270,2012-11-04 17:43:00
11:47 AM,77.0,68.0,74,30.05,10.0,WSW,9.2,-,N/A,,Mostly Cloudy,250,2012-11-04 17:47:00
11:55 AM,77.4,68.4,74,30.04,10.0,WSW,8.1,-,N/A,,Mostly Cloudy,240,2012-11-04 17:55:00
11:59 AM,78.8,68.0,69,30.04,10.0,SW,8.1,-,N/A,,Mostly Cloudy,230,2012-11-04 17:59:00
12:03 PM,78.8,68.0,69,30.04,10.0,SW,8.1,-,N/A,,Mostly Cloudy,220,2012-11-04 18:03:00
12:19 PM,75.2,68.0,78,30.04,10.0,SSW,11.5,-,N/A,,Scattered Clouds,210,2012-11-04 18:19:00
12:55 PM,77.7,69.3,75,30.02,10.0,SW,13.8,-,N/A,,Scattered Clouds,220,2012-11-04 18:55:00
1:55 PM,77.5,69.1,75,30.01,10.0,WSW,11.5,-,N/A,,Partly Cloudy,240,2012-11-04 19:55:00
2:55 PM,77.2,68.2,74,30.01,10.0,West,10.4,-,N/A,,Scattered Clouds,270,2012-11-04 20:55:00
3:55 PM,73.0,68.9,87,30.01,10.0,SW,9.2,-,N/A,,Partly Cloudy,230,2012-11-04 21:55:00
4:55 PM,72.1,66.9,84,30.00,10.0,WSW,3.5,-,N/A,,Clear,250,2012-11-04 22:55:00
5:55 PM,71.4,61.0,70,30.02,10.0,NNW,6.9,-,N/A,,Clear,330,2012-11-04 23:55:00
6:55 PM,69.1,58.5,69,30.02,10.0,WNW,3.5,-,N/A,,Scattered Clouds,300,2012-11-05 00:55:00
7:55 PM,67.3,58.1,72,30.03,10.0,NW,4.6,-,N/A,,Mostly Cloudy,310,2012-11-05 01:55:00
8:55 PM,65.3,57.9,77,30.04,10.0,NW,4.6,-,N/A,,Clear,320,2012-11-05 02:55:00
9:55 PM,61.9,57.7,86,30.05,10.0,NNW,4.6,-,N/A,,Clear,340,2012-11-05 03:55:00
10:55 PM,59.9,57.7,93,30.05,10.0,NNW,4.6,-,N/A,,Clear,330,2012-11-05 04:55:00